Location: Spring Creek
(38.2870°N, 100.2160°W)
Time: 13:05:55
(UTC+00:00)

Meteor 1-20 Rocket - Pass Details

Date: 08 May 2021
Orbit: 818 x 893 km, 81.2° (Epoch: 22 June)

Event Time Altitude Azimuth Distance (km) Brightness Sun altitude
Rises 03:35:29 0° 350° (N) 3,434 8.2 -20.1°
Reaches altitude 10° 03:37:57 10° 350° (N) 2,483 7.4 -20.4°
Maximum altitude 03:43:34 87° 265° (W) 844 4.1 -21.2°
Enters shadow 03:45:53 37° 175° (S) 1,273 4.7 -21.5°
